This is the latest recevied weather packets stored in our database for station/object KM8V-8. If no packets are shown the sender has not sent any weather packets the latest 10 day(s).
| Time | Temp. | Humidity | Pressure | Rain* | Wind** | Luminosity | Snow |
|---|---|---|---|---|---|---|---|
| 1778025020 | 9.44° C | 98% | 1008.1 hPa | 1.02 mm | - | 13 W/m² | - |
| 1778024721 | 9.44° C | 98% | 1008 hPa | 1.52 mm | - | 15 W/m² | - |
| 1778024421 | 9.44° C | 98% | 1008.1 hPa | 2.29 mm | - | 16 W/m² | - |
| 1778024119 | 9.44° C | 98% | 1008.2 hPa | 3.05 mm | - | 21 W/m² | - |
| 1778023820 | 9.44° C | 98% | 1008.2 hPa | 3.05 mm | - | 29 W/m² | - |
| 1778023522 | 9.44° C | 98% | 1008.4 hPa | 3.3 mm | - | 30 W/m² | - |
| 1778023222 | 9.44° C | 98% | 1008.6 hPa | 3.3 mm | - | 26 W/m² | - |
| 1778022922 | 9.44° C | 98% | 1008.5 hPa | 3.56 mm | - | 28 W/m² | - |
| 1778022619 | 9.44° C | 98% | 1008.5 hPa | 3.81 mm | - | 23 W/m² | - |
| 1778022321 | 9.44° C | 98% | 1008.7 hPa | 4.06 mm | - | 23 W/m² | - |
| 1778022022 | 10° C | 98% | 1008.6 hPa | 4.06 mm | - | 25 W/m² | - |
| 1778021722 | 10° C | 98% | 1008.6 hPa | 4.06 mm | - | 27 W/m² | - |
| 1778021421 | 10° C | 97% | 1008.8 hPa | 3.81 mm | - | 17 W/m² | - |
| 1778021123 | 10° C | 97% | 1008.6 hPa | 4.06 mm | - | 16 W/m² | - |
| 1778020822 | 10° C | 97% | 1008.3 hPa | 3.56 mm | - | 15 W/m² | - |
| 1778020522 | 10° C | 97% | 1008.2 hPa | 3.05 mm | - | 31 W/m² | - |
| 1778020222 | 10° C | 97% | 1008.4 hPa | 3.05 mm | - | 30 W/m² | - |
| 1778019922 | 10° C | 97% | 1008.4 hPa | 3.05 mm | - | 29 W/m² | - |
| 1778019622 | 10° C | 97% | 1008.5 hPa | 2.79 mm | - | 24 W/m² | - |
| 1778019322 | 10° C | 97% | 1008.3 hPa | 2.54 mm | - | 30 W/m² | - |
| 1778019022 | 10° C | 97% | 1008.2 hPa | 2.29 mm | - | 21 W/m² | - |
| 1778018722 | 10° C | 97% | 1008.1 hPa | 2.29 mm | - | 25 W/m² | - |
| 1778018422 | 10° C | 97% | 1008.1 hPa | 2.29 mm | - | 31 W/m² | - |
| 1778018122 | 10° C | 97% | 1008 hPa | 2.29 mm | - | 27 W/m² | - |
| 1778017823 | 10° C | 97% | 1008.1 hPa | 2.79 mm | - | 30 W/m² | - |
* Rain latest hour (hover to see other rain measurements)
** Current wind speed in m/s (hover to see current wind gust speed)